Regional Weather Roundup
Issued by NWS Little Rock, AR

Home | Current Version | Previous Version | Text Only | Print | Product List | Glossary On
Versions: 1 2 3 4 5 6 7 8 9 10 11 12 13 14 15 16 17 18 19 20 21 22 23 24 25 26 27 28 29 30 31 32 33 34 35 36 37 38 39 40 41 42 43 44 45 46 47 48 49 50
000
ASUS44 KLZK 272005
RWRLZK

WEATHER ROUNDUP FOR ARKANSAS
NATIONAL WEATHER SERVICE LITTLE ROCK AR
300 PM CDT WED AUG 27 2014

NOTE: "FAIR" INDICATES FEW OR NO CLOUDS BELOW 12,000 FEET WITH NO
SIGNIFICANT WEATHER AND/OR OBSTRUCTIONS TO VISIBILITY.

ARZ001-003-010-029-272100-
NORTHWEST ARKANSAS

CITY           SKY/WX    TMP DP  RH WIND       PRES   REMARKS
FAYETTEVILLE   MOSUNNY   91  65  41 E9        30.07F HX  93
FORT SMITH     MOSUNNY   94  68  42 VRB6      30.03F HX  98
HARRISON       SUNNY     93  67  42 E7        30.08F HX  96
BENTONVILLE    PTSUNNY   93  66  40 E8        30.09F HX  96
ROGERS         MOSUNNY   91  64  40 VRB5      30.08F HX  92
SILOAM SPGS      N/A     91  68  46 CALM      30.08F HX  95
HIGHFILL       SUNNY     92  62  36 SE12      30.07F HX  92
SPRINGDALE     MOSUNNY   90  68  48 NE9       30.10F HX  93
$$

ARZ004-005-016-272100-
NORTH CENTRAL ARKANSAS

CITY           SKY/WX    TMP DP  RH WIND       PRES   REMARKS
BATESVILLE     MOSUNNY   95  70  43 E9        30.05F HX 101
FLIPPIN        MOSUNNY   97  64  34 SE5       30.05F HX  99
MTN HOME       SUNNY     97  65  34 SE10      30.04F HX  99
$$

ARZ040-041-272100-
WEST CENTRAL ARKANSAS

CITY           SKY/WX    TMP DP  RH WIND       PRES   REMARKS
MENA           PTSUNNY   90  70  51 E3        30.08F HX  95
MOUNT IDA      SUNNY     90  69  50 VRB3      30.04F HX  94
$$

ARZ009-017-025-026-028-272100-
NORTHEAST ARKANSAS

CITY           SKY/WX    TMP DP  RH WIND       PRES   REMARKS
CORNING        LGT RAIN  91  73  55 SE8       30.05F HX 100
JONESBORO      MOSUNNY   93  70  46 E8        30.05F HX  99
NEWPORT        SUNNY     92  70  48 E8        30.06F HX  97
WALNUT RIDGE   SUNNY     91  64  40 N3        30.03F HX  93
BLYTHEVILLE    PTSUNNY   89  74  60 E5        30.05F HX  98
$$

ARZ022-023-033-042-044-272100-
CENTRAL ARKANSAS

CITY           SKY/WX    TMP DP  RH WIND       PRES   REMARKS
LITTLE ROCK    MOSUNNY   91  67  44 E5        30.05F HX  94
JACKSONVILLE   SUNNY     92  71  49 VRB2      30.05F HX  99
SEARCY         SUNNY     93  70  47 MISG      30.06F HX  98
HOT SPRINGS    SUNNY     92  67  43 SE7G18    30.05F HX  95
RUSSELLVILLE   MOSUNNY   94  72  48 VRB3      30.03F HX 102
CLINTON        FAIR      95  72  46 E3        30.04F HAZE    HX 103
$$

ARZ036-272100-
EAST ARKANSAS

CITY           SKY/WX    TMP DP  RH WIND       PRES   REMARKS
WEST MEMPHIS   PTSUNNY   91  69  48 MISG      30.04F HX  96
$$

ARZ050-053-066-070-073-272100-
SOUTHWEST ARKANSAS

CITY           SKY/WX    TMP DP  RH WIND       PRES   REMARKS
ARKADELPHIA    LGT RAIN  91  72  53 VRB3      30.05F HX  98
CAMDEN         CLOUDY    93  64  38 SE3       30.04F HX  95
TEXARKANA      PTSUNNY   91  67  44 NE7       30.04F HX  94
EL DORADO      SUNNY     90  65  43 S3        30.04F HX  92
DE QUEEN       MOSUNNY   90  69  50 SE6       30.03F HX  94
$$

ARZ056-057-069-272100-
SOUTHEAST ARKANSAS

CITY           SKY/WX    TMP DP  RH WIND       PRES   REMARKS
PINE BLUFF     MOSUNNY   91  70  49 E5        30.05F HX  96
STUTTGART      MOSUNNY   88  73  62 N6        30.07F HX  96
MONTICELLO     MOSUNNY   91  62  37 N6        30.04F HX  91

$$




USA.gov is the U.S. government's official web portal to all federal, state and local government web resources and services.